STARLINK-3874, 52365

Orbit data source: Space-Track

STARLINK-3874, 52365 is a payload satellite owned by SpaceX/Seattle (US) in LEO that was launched on Fri, 29 Apr 2022 UTC via an FALCON 9 launch vehicle from the Air Force Eastern Test Range (AFETR). Payload-class satellites include a variety of spacecraft equipped with specific instruments for various scientific and technological missions. These include communications satellites like Starlink; space stations such as the ISS; scientific satellites like the Hubble; Earth observation satellites from companies like Planet Labs, Umbra, and HawkEye 360; GPS; miniature CubeSats for education and research; and military/defense satellites.

Loading next visibility...
Identifier
52365, 2022-045AL
Orbit
LEO
Country
Flag of USUS
Related business
Manufacturer
SpaceX/Seattle
Mission
Operational Commercial Communications
Bus & Motor
STARLINK, Unknown motor
Mass
297 kg wet, ~275 kg dry
Launch date (UTC)
2022-04-29 (4 years ago)
Launch vehicle
FALCON 9
Launch site
Air Force Eastern Test Range (AFETR)
Object type
Payload
Rocket body
Debris
Shape & HBR
Box + 1 Pan, 10.1 m
Radar Cross Section
11.087 m², Large (>1 m²)

Expand to show TLE details & history
Last TLE update: 18 hours ago

TLE from 18 hours ago
0 STARLINK-3874
1 52365U 22045AL  25349.33679853  .00001137  00000-0  89512-4 0  9992
2 52365  53.2157 207.7940 0001468  89.9691 270.1469 15.08837221203186
Epoch: 2025-12-15T08:04Z
TLE epoch observation values (Epoch: 2025-12-15T08:04:59.392Z)
Latitude
-0.00008°
Longitude
2.30966°
Altitude
540.647 km
Speed
7.593 km/s
True Right ascension
13h 51m 10s
True Declination
0° 00' 00"
Sunlit
Object was in daylight at epoch
Visualization orbit readout
Latitude
Unknown
Longitude
Unknown
Altitude
Unknown
Speed
Unknown
Apparent Right ascension
Unknown
Apparent Declination
Unknown
Sunlit
N/A
Visualization observer readout
Local Sidereal Time
00:24:31
Azimuth
Unknown
Elevation
Unknown
Doppler factor
Unknown
Orbital elements
Apogee altitude
541.013 km
Perigee altitude
538.982 km
Semi-major axis
6,918.134 km
Eccentricity
0.00015
Inclination
53.2157°
RAAN
207.794°
Arg. of periapsis
89.9691°
True anomaly
270.13008°
Mean anomaly
270.1469°
Eccentric anomaly
270.13849°
Mean motion
3.7719 °/min
Orbital period
95.44 mins
BSTAR
0.000089512
Loading maneuver chart data...
Computing Atmospheric mass density...
Loading historical data...
Loading historical data...
Loading historical data...
Loading historical data...
Loading historical data...
Loading historical data...
Loading historical data...

Documentation

Showing up to 5 results
|